图集2016:辽宁沈阳宏运冬训(二)     (2016-12-08)
图集2016:辽宁沈阳宏运冬训(一)     (2016-12-03)
图集2016:辽宁沈阳宏运预备队0-4江苏苏宁预备队     (2016-10-31)
图集2016:辽足球迷助力辽足完美收官     (2016-10-30)
图集2016:辽宁沈阳宏运1-0江苏苏宁易购     (2016-10-30)
图集2016:辽宁宏运vs江苏苏宁赛前新闻发布会     (2016-10-29)
图集2016:广州富力预备队2-2辽宁沈阳宏运预备队     (2016-10-28)
图集2016:广州富力1-1辽宁沈阳宏运     (2016-10-27)
图集2016:辽宁沈阳宏运预备队0-0长春亚泰预备队     (2016-10-27)
图集2016:辽宁沈阳宏运0-1长春亚泰     (2016-10-23)
图集2016:辽宁沈阳宏运vs长春亚泰赛前踩场   (2016-10-22)
图集2016:重庆力帆预备队1-0辽宁沈阳宏运预备队   (2016-10-19)
图集2016:重庆力帆2-1辽宁沈阳宏运   (2016-10-16)
图集2016:辽宁沈阳宏运预备队0-1重庆力帆预备队   (2016-10-16)
图集2016:辽宁沈阳宏运预备队2-2延边富德预备队     (2016-09-25)
图集2016:辽宁沈阳宏运3-0延边富德     (2016-09-24)
图集2016:辽宁沈阳宏运vs延边富德赛前发布会及踩场     (2016-09-23)
图集2016:广州恒大淘宝6-2辽宁沈阳宏运     (2016-09-21)
图集2016:辽宁沈阳宏运预备队0-0北京国安乐视预备队     (2016-09-15)
图集2016:辽宁沈阳宏运0-2北京国安乐视     (2016-09-14)
图集2016:辽宁宏运vs北京国安赛前踩场训练     (2016-09-13)
图集2016:辽宁宏运预备队1-4杭州绿城预备队     (2016-09-11)
图集2016:辽宁沈阳宏运2-0杭州绿城     (2016-09-10)
图集2016:辽宁宏运踩场备战杭州绿城     (2016-09-09)
图集2016:辽宁沈阳宏运2-3纽卡斯尔喷气机     (2016-08-28)
图集2016:辽宁沈阳宏运备战纽卡斯尔喷气机     (2016-08-27)
图集2016:哥德杯中国B17辽宁宏运0-7英格兰 Kinetic Academy     (2016-08-18)
图集2016:哥德杯中国B17辽宁宏运0:10南非马美罗迪日落     (2016-08-17)
图集2016:哥德杯中国B17辽宁宏运0-4东京绿茵     (2016-08-16)
图集2016:河北华夏幸福0-0辽宁沈阳宏运     (2016-08-14)
热门图片
推荐图片